QPF
0.03 0.02 0.03 0.05 0.05 0.04 0.05 0.06 0.06 0.10 0.14 0.15 0.12 0.11 0.09 0.11 0.14 0.10 0.10 0.08 0.06 0.05 0.06 0.07 0.08 0.09 0.08 0.08 0.09 0.10 0.13 0.16 0.17 0.20 0.19 0.16 0.15 0.13 0.11 0.12 0.13 0.16 0.18
0.03 0.02 0.02 0.04 0.04 0.04 0.05 0.05 0.05 0.09 0.11 0.13 0.19 0.18 0.13 0.11 0.13 0.09 0.07 0.06 0.06 0.06 0.08 0.08 0.10 0.10 0.09 0.08 0.09 0.11 0.13 0.17 0.29 0.24 0.19 0.16 0.13 0.12 0.12 0.18 0.19 0.19 0.15
0.01 0.02 0.02 0.03 0.04 0.05 0.07 0.06 0.06 0.08 0.09 0.10 0.20 0.17 0.13 0.13 0.11 0.08 0.07 0.08 0.09 0.08 0.09 0.10 0.12 0.11 0.10 0.10 0.10 0.12 0.13 0.16 0.22 0.17 0.19 0.20 0.18 0.22 0.17 0.15 0.14 0.13 0.12
0.02 0.03 0.04 0.03 0.04 0.05 0.06 0.07 0.07 0.07 0.07 0.08 0.13 0.17 0.16 0.13 0.11 0.09 0.08 0.10 0.11 0.11 0.11 0.11 0.10 0.09 0.08 0.07 0.08 0.09 0.08 0.08 0.09 0.11 0.15 0.16 0.17 0.14 0.12 0.12 0.10 0.08 0.08
0.02 0.03 0.05 0.07 0.07 0.05 0.06 0.05 0.06 0.08 0.09 0.08 0.09 0.12 0.14 0.11 0.09 0.11 0.10 0.10 0.12 0.11 0.09 0.08 0.07 0.06 0.06 0.06 0.07 0.07 0.06 0.06 0.07 0.08 0.10 0.14 0.14 0.11 0.08 0.08 0.07 0.07 0.09
0.02 0.03 0.06 0.13 0.11 0.06 0.05 0.04 0.06 0.07 0.08 0.08 0.08 0.09 0.11 0.11 0.10 0.10 0.08 0.07 0.07 0.08 0.09 0.08 0.06 0.06 0.05 0.06 0.06 0.05 0.04 0.05 0.06 0.06 0.08 0.09 0.10 0.09 0.07 0.09 0.08 0.07 0.08
0.01 0.03 0.07 0.15 0.16 0.12 0.08 0.05 0.04 0.05 0.06 0.08 0.07 0.09 0.11 0.11 0.11 0.10 0.08 0.06 0.06 0.08 0.09 0.08 0.08 0.07 0.05 0.04 0.04 0.04 0.05 0.06 0.05 0.04 0.05 0.07 0.08 0.09 0.09 0.09 0.07 0.06 0.07
0.01 0.01 0.03 0.08 0.14 0.15 0.12 0.08 0.07 0.06 0.05 0.07 0.07 0.08 0.10 0.12 0.12 0.11 0.09 0.08 0.07 0.07 0.07 0.06 0.06 0.05 0.04 0.03 0.04 0.04 0.06 0.08 0.06 0.05 0.06 0.08 0.09 0.07 0.06 0.06 0.07 0.06 0.06
0.01 0.01 0.02 0.02 0.05 0.09 0.09 0.08 0.08 0.07 0.05 0.05 0.06 0.08 0.11 0.11 0.11 0.11 0.10 0.09 0.08 0.08 0.10 0.10 0.09 0.07 0.06 0.04 0.04 0.05 0.06 0.08 0.09 0.08 0.07 0.10 0.11 0.07 0.05 0.04 0.05 0.06 0.06
0.01 0.01 0.01 0.02 0.03 0.05 0.06 0.05 0.05 0.05 0.04 0.04 0.04 0.05 0.08 0.14 0.18 0.17 0.16 0.16 0.19 0.21 0.22 0.17 0.13 0.10 0.06 0.04 0.04 0.04 0.04 0.06 0.08 0.09 0.11 0.13 0.10 0.07 0.04 0.04 0.04 0.05 0.04
0.03 0.02 0.01 0.02 0.03 0.02 0.04 0.04 0.03 0.04 0.03 0.03 0.03 0.03 0.05 0.09 0.15 0.18 0.18 0.16 0.16 0.14 0.12 0.10 0.09 0.06 0.04 0.04 0.03 0.02 0.02 0.05 0.09 0.08 0.09 0.09 0.09 0.09 0.06 0.05 0.04 0.03 0.03
0.04 0.02 0.02 0.01 0.02 0.02 0.03 0.03 0.04 0.04 0.03 0.04 0.03 0.03 0.04 0.04 0.05 0.06 0.08 0.09 0.09 0.07 0.05 0.04 0.03 0.03 0.03 0.04 0.03 0.01 0.02 0.03 0.06 0.07 0.06 0.06 0.06 0.07 0.07 0.07 0.06 0.04 0.04
0.03 0.02 0.02 0.01 0.01 0.02 0.02 0.03 0.03 0.03 0.02 0.01 0.01 0.02 0.02 0.02 0.03 0.02 0.02 0.03 0.04 0.04 0.04 0.03 0.03 0.04 0.04 0.03 0.03 0.02 0.02 0.04 0.06 0.06 0.07 0.06 0.06 0.06 0.07 0.08 0.09 0.08 0.06
0.02 0.01 0.01 0.00 0.01 0.00 0.01 0.01 0.02 0.02 0.01 0.01 0.01 0.02 0.03 0.03 0.05 0.03 0.02 0.01 0.01 0.02 0.03 0.04 0.06 0.07 0.09 0.08 0.08 0.06 0.06 0.06 0.07 0.07 0.08 0.07 0.06 0.06 0.08 0.10 0.11 0.12 0.10
0.02 0.01 0.00 0.00 0.00 0.01 0.02 0.01 0.01 0.01 0.01 0.00 0.01 0.02 0.04 0.03 0.05 0.04 0.01 0.01 0.01 0.01 0.01 0.01 0.02 0.04 0.07 0.09 0.11 0.11 0.09 0.08 0.08 0.07 0.10 0.09 0.08 0.08 0.08 0.09 0.11 0.16 0.15
0.01 0.02 0.01 0.01 0.01 0.01 0.01 0.00 0.00 0.00 0.00 0.00 0.00 0.01 0.03 0.05 0.05 0.06 0.04 0.02 0.01 0.01 0.01 0.01 0.01 0.02 0.02 0.03 0.05 0.08 0.07 0.05 0.05 0.07 0.09 0.08 0.06 0.05 0.05 0.06 0.10 0.15 0.16
0.01 0.01 0.03 0.02 0.02 0.02 0.01 0.02 0.01 0.00 0.00 0.00 0.00 0.00 0.02 0.04 0.05 0.05 0.05 0.03 0.02 0.01 0.01 0.02 0.02 0.02 0.02 0.02 0.02 0.03 0.03 0.03 0.03 0.04 0.04 0.04 0.03 0.02 0.03 0.05 0.11 0.14 0.13
0.02 0.03 0.02 0.01 0.02 0.02 0.02 0.03 0.02 0.00 0.00 0.00 0.00 0.00 0.01 0.03 0.03 0.03 0.04 0.03 0.02 0.02 0.02 0.02 0.02 0.01 0.01 0.01 0.02 0.02 0.02 0.02 0.02 0.02 0.02 0.03 0.03 0.02 0.02 0.03 0.05 0.07 0.10
0.01 0.02 0.02 0.02 0.02 0.02 0.03 0.02 0.01 0.01 0.01 0.00 0.00 0.00 0.01 0.01 0.02 0.03 0.03 0.02 0.02 0.02 0.02 0.01 0.01 0.01 0.01 0.00 0.01 0.01 0.01 0.01 0.01 0.01 0.02 0.02 0.03 0.03 0.03 0.02 0.01 0.03 0.07
0.01 0.02 0.02 0.01 0.01 0.01 0.01 0.02 0.01 0.02 0.02 0.01 0.01 0.01 0.00 0.01 0.02 0.02 0.02 0.02 0.02 0.02 0.02 0.01 0.01 0.01 0.01 0.01 0.00 0.00 0.01 0.01 0.01 0.01 0.01 0.03 0.03 0.02 0.04 0.04 0.02 0.02 0.03
0.01 0.02 0.03 0.02 0.02 0.02 0.03 0.03 0.03 0.02 0.02 0.03 0.02 0.01 0.00 0.01 0.01 0.02 0.02 0.02 0.02 0.02 0.01 0.01 0.00 0.00 0.01 0.01 0.01 0.01 0.01 0.01 0.01 0.01 0.01 0.02 0.02 0.02 0.04 0.05 0.05 0.04 0.03
0.00 0.01 0.02 0.02 0.02 0.02 0.02 0.02 0.02 0.02 0.02 0.02 0.02 0.01 0.01 0.00 0.01 0.02 0.02 0.02 0.02 0.02 0.02 0.01 0.01 0.01 0.01 0.01 0.02 0.02 0.02 0.02 0.02 0.01 0.01 0.01 0.02 0.02 0.03 0.04 0.05 0.07 0.06
0.00 0.00 0.01 0.02 0.02 0.03 0.02 0.02 0.01 0.01 0.01 0.02 0.01 0.02 0.01 0.01 0.01 0.01 0.02 0.03 0.03 0.03 0.03 0.02 0.01 0.01 0.01 0.01 0.01 0.02 0.03 0.03 0.02 0.01 0.01 0.02 0.02 0.02 0.03 0.03 0.04 0.04 0.06
0.00 0.00 0.01 0.02 0.02 0.02 0.02 0.02 0.01 0.01 0.02 0.01 0.01 0.01 0.01 0.01 0.01 0.01 0.01 0.02 0.04 0.04 0.03 0.02 0.01 0.01 0.01 0.01 0.01 0.01 0.01 0.02 0.02 0.02 0.02 0.02 0.01 0.02 0.03 0.04 0.05 0.05 0.05
0.01 0.00 0.00 0.02 0.02 0.02 0.02 0.02 0.02 0.02 0.02 0.02 0.02 0.02 0.02 0.02 0.01 0.01 0.01 0.02 0.03 0.03 0.03 0.03 0.03 0.02 0.01 0.01 0.01 0.01 0.01 0.02 0.02 0.03 0.03 0.02 0.02 0.02 0.02 0.02 0.04 0.07 0.06
0.01 0.00 0.00 0.01 0.03 0.03 0.02 0.02 0.03 0.03 0.03 0.04 0.04 0.03 0.03 0.02 0.02 0.01 0.02 0.01 0.01 0.02 0.02 0.02 0.02 0.03 0.03 0.02 0.02 0.02 0.02 0.02 0.03 0.03 0.03 0.03 0.02 0.02 0.01 0.01 0.02 0.04 0.08
MSLP
1012.13 1011.27 1010.47 1009.85 1009.45 1009.28 1009.27 1009.32 1009.33 1009.24 1008.99 1008.61 1008.15 1007.67 1007.22 1006.84 1006.52 1006.23 1005.93 1005.61 1005.24 1004.84 1004.45 1004.11 1003.88 1003.78 1003.81 1003.98 1004.25 1004.61 1005.03 1005.52 1006.06 1006.66 1007.29 1007.93 1008.54 1009.08 1009.52 1009.87 1010.13 1010.35 1010.59
1012.49 1011.64 1010.84 1010.20 1009.79 1009.60 1009.55 1009.57 1009.56 1009.44 1009.20 1008.85 1008.44 1008.04 1007.68 1007.41 1007.20 1007.02 1006.82 1006.56 1006.24 1005.87 1005.47 1005.10 1004.81 1004.64 1004.59 1004.67 1004.86 1005.15 1005.53 1005.99 1006.52 1007.11 1007.74 1008.39 1009.00 1009.53 1009.96 1010.28 1010.53 1010.74 1010.97
1012.81 1011.99 1011.23 1010.62 1010.21 1010.01 1009.95 1009.94 1009.90 1009.78 1009.54 1009.22 1008.86 1008.53 1008.26 1008.08 1007.96 1007.86 1007.74 1007.54 1007.26 1006.91 1006.53 1006.15 1005.84 1005.62 1005.52 1005.54 1005.67 1005.91 1006.23 1006.65 1007.15 1007.73 1008.35 1008.98 1009.58 1010.10 1010.51 1010.82 1011.05 1011.24 1011.46
1013.07 1012.33 1011.63 1011.08 1010.71 1010.53 1010.47 1010.45 1010.40 1010.27 1010.05 1009.76 1009.46 1009.19 1008.99 1008.88 1008.82 1008.77 1008.69 1008.53 1008.28 1007.95 1007.59 1007.24 1006.93 1006.72 1006.61 1006.61 1006.70 1006.89 1007.17 1007.54 1008.00 1008.54 1009.13 1009.73 1010.30 1010.79 1011.18 1011.47 1011.67 1011.85 1012.04
1013.32 1012.67 1012.06 1011.60 1011.30 1011.16 1011.12 1011.10 1011.05 1010.93 1010.73 1010.48 1010.23 1010.02 1009.88 1009.82 1009.79 1009.76 1009.69 1009.54 1009.30 1009.00 1008.67 1008.36 1008.10 1007.92 1007.84 1007.85 1007.94 1008.11 1008.35 1008.67 1009.07 1009.55 1010.08 1010.63 1011.15 1011.60 1011.96 1012.22 1012.40 1012.54 1012.71
1013.60 1013.05 1012.56 1012.20 1011.99 1011.90 1011.89 1011.90 1011.86 1011.75 1011.58 1011.37 1011.17 1011.01 1010.92 1010.88 1010.87 1010.84 1010.75 1010.59 1010.36 1010.07 1009.78 1009.52 1009.33 1009.22 1009.20 1009.25 1009.36 1009.52 1009.73 1009.99 1010.32 1010.72 1011.17 1011.64 1012.10 1012.50 1012.81 1013.03 1013.18 1013.30 1013.44
1013.96 1013.51 1013.14 1012.89 1012.77 1012.75 1012.77 1012.79 1012.76 1012.67 1012.52 1012.36 1012.21 1012.11 1012.06 1012.04 1012.03 1011.99 1011.88 1011.69 1011.45 1011.17 1010.92 1010.72 1010.60 1010.58 1010.63 1010.74 1010.88 1011.05 1011.23 1011.44 1011.69 1012.00 1012.36 1012.74 1013.11 1013.44 1013.70 1013.89 1014.01 1014.10 1014.20
1014.44 1014.08 1013.82 1013.68 1013.64 1013.67 1013.72 1013.74 1013.71 1013.63 1013.50 1013.38 1013.28 1013.23 1013.22 1013.23 1013.23 1013.17 1013.03 1012.83 1012.57 1012.31 1012.08 1011.94 1011.90 1011.95 1012.08 1012.25 1012.43 1012.60 1012.76 1012.92 1013.10 1013.31 1013.57 1013.86 1014.15 1014.41 1014.62 1014.76 1014.85 1014.92 1014.99
1015.04 1014.78 1014.61 1014.55 1014.57 1014.63 1014.68 1014.69 1014.64 1014.55 1014.44 1014.34 1014.28 1014.28 1014.32 1014.36 1014.38 1014.32 1014.17 1013.96 1013.69 1013.44 1013.24 1013.15 1013.16 1013.28 1013.48 1013.70 1013.91 1014.09 1014.23 1014.35 1014.46 1014.60 1014.77 1014.97 1015.18 1015.38 1015.53 1015.64 1015.71 1015.75 1015.79
1015.74 1015.56 1015.47 1015.47 1015.53 1015.59 1015.61 1015.59 1015.50 1015.38 1015.26 1015.18 1015.16 1015.20 1015.29 1015.37 1015.42 1015.38 1015.24 1015.03 1014.78 1014.54 1014.37 1014.31 1014.37 1014.53 1014.77 1015.03 1015.26 1015.45 1015.58 1015.66 1015.73 1015.81 1015.92 1016.05 1016.20 1016.34 1016.45 1016.53 1016.57 1016.59 1016.61
1016.50 1016.38 1016.35 1016.39 1016.45 1016.49 1016.47 1016.39 1016.25 1016.09 1015.95 1015.87 1015.87 1015.96 1016.08 1016.22 1016.30 1016.30 1016.20 1016.02 1015.79 1015.58 1015.44 1015.40 1015.49 1015.68 1015.94 1016.21 1016.46 1016.65 1016.77 1016.85 1016.89 1016.94 1017.00 1017.09 1017.20 1017.30 1017.38 1017.43 1017.45 1017.44 1017.43
1017.26 1017.20 1017.21 1017.25 1017.30 1017.30 1017.23 1017.09 1016.89 1016.69 1016.52 1016.43 1016.45 1016.55 1016.72 1016.90 1017.03 1017.09 1017.04 1016.91 1016.73 1016.56 1016.45 1016.44 1016.54 1016.73 1016.99 1017.26 1017.51 1017.70 1017.83 1017.90 1017.95 1017.99 1018.04 1018.11 1018.19 1018.26 1018.31 1018.34 1018.33 1018.30 1018.26
1018.00 1017.97 1017.99 1018.03 1018.05 1018.00 1017.88 1017.69 1017.44 1017.20 1017.01 1016.91 1016.92 1017.05 1017.24 1017.45 1017.64 1017.75 1017.77 1017.71 1017.60 1017.48 1017.42 1017.43 1017.53 1017.72 1017.96 1018.22 1018.45 1018.64 1018.77 1018.86 1018.92 1018.97 1019.03 1019.10 1019.16 1019.21 1019.24 1019.24 1019.20 1019.14 1019.08
1018.68 1018.66 1018.67 1018.70 1018.68 1018.60 1018.45 1018.22 1017.95 1017.68 1017.48 1017.37 1017.38 1017.51 1017.71 1017.96 1018.18 1018.35 1018.44 1018.46 1018.43 1018.38 1018.37 1018.41 1018.52 1018.69 1018.91 1019.13 1019.34 1019.52 1019.66 1019.76 1019.85 1019.92 1019.99 1020.06 1020.12 1020.15 1020.15 1020.11 1020.03 1019.94 1019.84
1019.30 1019.28 1019.27 1019.27 1019.23 1019.12 1018.95 1018.71 1018.44 1018.19 1017.99 1017.89 1017.90 1018.02 1018.23 1018.48 1018.73 1018.95 1019.11 1019.20 1019.26 1019.29 1019.33 1019.41 1019.52 1019.68 1019.86 1020.05 1020.23 1020.39 1020.53 1020.65 1020.75 1020.84 1020.93 1021.00 1021.04 1021.05 1021.00 1020.92 1020.80 1020.67 1020.54
1019.89 1019.85 1019.81 1019.77 1019.70 1019.59 1019.42 1019.21 1018.98 1018.76 1018.60 1018.52 1018.53 1018.64 1018.83 1019.08 1019.34 1019.59 1019.80 1019.97 1020.10 1020.21 1020.32 1020.43 1020.56 1020.70 1020.85 1021.00 1021.14 1021.28 1021.40 1021.52 1021.64 1021.74 1021.83 1021.90 1021.92 1021.89 1021.80 1021.67 1021.50 1021.32 1021.16
1020.48 1020.40 1020.33 1020.25 1020.16 1020.05 1019.91 1019.74 1019.58 1019.43 1019.32 1019.27 1019.29 1019.39 1019.56 1019.78 1020.03 1020.28 1020.53 1020.76 1020.96 1021.14 1021.30 1021.45 1021.59 1021.72 1021.84 1021.95 1022.06 1022.17 1022.28 1022.39 1022.50 1022.61 1022.70 1022.75 1022.75 1022.68 1022.54 1022.35 1022.14 1021.92 1021.73
1021.08 1020.98 1020.86 1020.75 1020.64 1020.53 1020.43 1020.33 1020.24 1020.18 1020.13 1020.13 1020.17 1020.25 1020.39 1020.57 1020.78 1021.02 1021.28 1021.54 1021.79 1022.02 1022.23 1022.41 1022.57 1022.69 1022.79 1022.87 1022.94 1023.02 1023.12 1023.22 1023.34 1023.45 1023.53 1023.56 1023.53 1023.42 1023.25 1023.01 1022.75 1022.49 1022.28
1021.72 1021.59 1021.44 1021.29 1021.16 1021.06 1021.00 1020.97 1020.97 1020.99 1021.02 1021.06 1021.11 1021.18 1021.27 1021.40 1021.56 1021.76 1022.00 1022.26 1022.53 1022.80 1023.04 1023.25 1023.42 1023.54 1023.62 1023.68 1023.74 1023.80 1023.88 1023.99 1024.11 1024.22 1024.31 1024.33 1024.29 1024.16 1023.95 1023.68 1023.39 1023.11 1022.87
1022.38 1022.23 1022.05 1021.87 1021.73 1021.64 1021.62 1021.65 1021.73 1021.82 1021.92 1022.00 1022.07 1022.12 1022.16 1022.22 1022.32 1022.46 1022.65 1022.88 1023.15 1023.42 1023.68 1023.90 1024.08 1024.20 1024.28 1024.34 1024.39 1024.45 1024.54 1024.66 1024.79 1024.92 1025.02 1025.06 1025.02 1024.89 1024.67 1024.40 1024.09 1023.80 1023.55
1023.04 1022.89 1022.69 1022.50 1022.34 1022.27 1022.27 1022.35 1022.49 1022.65 1022.80 1022.92 1022.98 1023.01 1023.00 1022.99 1023.01 1023.07 1023.20 1023.38 1023.61 1023.86 1024.11 1024.34 1024.51 1024.64 1024.73 1024.79 1024.86 1024.94 1025.05 1025.20 1025.37 1025.54 1025.67 1025.75 1025.74 1025.63 1025.43 1025.17 1024.87 1024.58 1024.33
1023.66 1023.51 1023.32 1023.12 1022.97 1022.90 1022.93 1023.05 1023.23 1023.43 1023.62 1023.75 1023.82 1023.81 1023.75 1023.67 1023.61 1023.59 1023.63 1023.75 1023.92 1024.14 1024.36 1024.56 1024.74 1024.87 1024.97 1025.05 1025.13 1025.25 1025.40 1025.59 1025.81 1026.03 1026.23 1026.36 1026.40 1026.35 1026.20 1025.98 1025.71 1025.44 1025.20
1024.20 1024.08 1023.90 1023.71 1023.57 1023.51 1023.55 1023.69 1023.90 1024.12 1024.33 1024.47 1024.53 1024.50 1024.39 1024.25 1024.12 1024.02 1023.98 1024.02 1024.12 1024.28 1024.46 1024.63 1024.79 1024.92 1025.03 1025.13 1025.24 1025.39 1025.59 1025.84 1026.11 1026.40 1026.66 1026.86 1026.98 1027.00 1026.93 1026.77 1026.55 1026.31 1026.09
1024.64 1024.55 1024.39 1024.23 1024.10 1024.06 1024.11 1024.25 1024.46 1024.70 1024.91 1025.06 1025.10 1025.05 1024.92 1024.73 1024.54 1024.37 1024.26 1024.23 1024.27 1024.36 1024.49 1024.62 1024.75 1024.87 1024.98 1025.10 1025.24 1025.42 1025.65 1025.94 1026.27 1026.61 1026.94 1027.22 1027.42 1027.52 1027.53 1027.45 1027.30 1027.11 1026.91
1024.98 1024.91 1024.79 1024.65 1024.54 1024.51 1024.56 1024.70 1024.91 1025.14 1025.35 1025.48 1025.53 1025.46 1025.32 1025.11 1024.88 1024.67 1024.51 1024.42 1024.40 1024.44 1024.51 1024.61 1024.71 1024.81 1024.91 1025.02 1025.17 1025.36 1025.62 1025.93 1026.28 1026.67 1027.04 1027.38 1027.65 1027.84 1027.94 1027.95 1027.88 1027.75 1027.60
1025.24 1025.19 1025.09 1024.97 1024.88 1024.85 1024.90 1025.03 1025.22 1025.43 1025.62 1025.75 1025.79 1025.73 1025.58 1025.37 1025.14 1024.92 1024.74 1024.62 1024.56 1024.55 1024.59 1024.64 1024.71 1024.78 1024.86 1024.96 1025.10 1025.28 1025.52 1025.82 1026.18 1026.57 1026.97 1027.34 1027.67 1027.93 1028.11 1028.21 1028.23 1028.18 1028.09
Thickness
5771 5773 5773 5773 5774 5775 5776 5777 5778 5779 5779 5780 5781 5781 5782 5782 5782 5782 5782 5781 5781 5781 5781 5781 5781 5781 5781 5780 5780 5779 5778 5777 5777 5776 5776 5775 5775 5774 5774 5774 5774 5774 5773
5773 5772 5771 5771 5772 5773 5773 5774 5775 5776 5777 5777 5778 5780 5780 5780 5780 5779 5779 5779 5779 5778 5779 5778 5779 5778 5778 5777 5777 5777 5776 5775 5774 5773 5773 5773 5772 5772 5771 5771 5772 5771 5771
5772 5771 5769 5769 5769 5770 5771 5771 5772 5773 5774 5774 5776 5777 5777 5776 5776 5776 5776 5776 5776 5776 5776 5776 5775 5775 5774 5774 5773 5773 5774 5772 5772 5771 5771 5770 5769 5769 5769 5769 5769 5769 5769
5771 5769 5768 5766 5767 5767 5768 5768 5769 5770 5771 5771 5772 5772 5772 5773 5773 5773 5773 5772 5772 5772 5772 5772 5772 5771 5771 5770 5770 5770 5770 5770 5770 5769 5768 5767 5767 5766 5766 5766 5766 5766 5766
5768 5766 5764 5764 5764 5764 5764 5765 5766 5766 5767 5768 5768 5768 5769 5769 5770 5769 5769 5769 5769 5769 5769 5768 5768 5768 5767 5767 5767 5767 5767 5767 5767 5766 5765 5764 5763 5763 5763 5763 5763 5763 5763
5766 5764 5762 5761 5761 5760 5761 5761 5762 5762 5763 5764 5764 5765 5765 5766 5766 5766 5766 5765 5765 5765 5765 5765 5764 5764 5764 5764 5764 5764 5764 5763 5763 5763 5762 5761 5760 5760 5760 5760 5760 5760 5760
5764 5762 5760 5758 5758 5757 5757 5757 5758 5758 5759 5759 5760 5760 5761 5762 5762 5762 5762 5762 5761 5761 5761 5761 5760 5760 5760 5760 5760 5760 5760 5760 5760 5760 5759 5757 5757 5757 5757 5757 5756 5756 5757
5762 5760 5757 5755 5755 5754 5753 5753 5753 5753 5754 5755 5755 5756 5757 5757 5757 5758 5757 5757 5757 5757 5757 5756 5756 5756 5756 5755 5756 5756 5757 5757 5756 5755 5755 5754 5754 5754 5754 5753 5753 5753 5754
5760 5758 5756 5753 5752 5751 5750 5750 5750 5750 5750 5750 5751 5752 5752 5753 5753 5753 5753 5753 5753 5753 5752 5752 5752 5752 5752 5752 5752 5752 5752 5752 5752 5752 5751 5750 5750 5750 5750 5750 5750 5750 5750
5757 5756 5755 5753 5751 5749 5747 5747 5746 5746 5746 5747 5747 5748 5748 5749 5749 5749 5749 5749 5749 5749 5748 5748 5748 5747 5747 5748 5747 5748 5748 5748 5747 5747 5746 5745 5746 5746 5745 5745 5746 5746 5746
5751 5753 5753 5752 5750 5748 5746 5744 5743 5743 5743 5743 5744 5744 5745 5745 5746 5746 5746 5746 5745 5744 5744 5744 5743 5743 5744 5744 5744 5744 5743 5743 5742 5742 5741 5741 5741 5741 5741 5741 5741 5741 5742
5744 5748 5750 5749 5748 5746 5745 5742 5742 5741 5741 5741 5742 5742 5742 5742 5742 5742 5742 5742 5741 5741 5740 5740 5740 5740 5740 5740 5740 5739 5739 5739 5738 5737 5736 5736 5736 5736 5737 5737 5737 5737 5738
5743 5744 5746 5747 5746 5744 5742 5741 5741 5740 5739 5739 5739 5739 5739 5739 5738 5738 5738 5738 5737 5737 5737 5736 5736 5737 5737 5736 5735 5735 5734 5734 5732 5731 5730 5731 5731 5732 5732 5732 5732 5733 5733
5741 5741 5743 5744 5743 5742 5741 5739 5739 5738 5737 5737 5737 5737 5736 5736 5735 5735 5735 5734 5734 5734 5733 5733 5732 5732 5733 5732 5732 5731 5730 5729 5727 5726 5725 5726 5726 5726 5727 5727 5727 5727 5728
5738 5739 5740 5741 5740 5740 5738 5737 5736 5735 5735 5735 5734 5734 5734 5733 5732 5732 5731 5731 5730 5729 5729 5728 5728 5728 5727 5727 5727 5726 5725 5724 5722 5721 5720 5720 5720 5721 5721 5722 5722 5722 5723
5737 5737 5738 5738 5737 5737 5735 5734 5733 5732 5732 5732 5731 5731 5731 5730 5729 5729 5728 5726 5726 5725 5725 5724 5723 5722 5722 5722 5721 5720 5719 5719 5717 5716 5715 5714 5714 5715 5716 5716 5717 5717 5717
5736 5736 5735 5735 5735 5733 5732 5731 5730 5729 5729 5728 5728 5728 5728 5727 5726 5725 5724 5722 5722 5722 5721 5720 5719 5718 5717 5716 5715 5715 5714 5713 5713 5712 5711 5710 5709 5709 5710 5710 5710 5711 5711
5735 5733 5732 5733 5731 5729 5728 5727 5726 5726 5725 5725 5724 5724 5724 5723 5722 5721 5719 5718 5718 5717 5717 5716 5714 5712 5711 5710 5709 5709 5709 5708 5708 5707 5706 5706 5705 5703 5703 5703 5704 5705 5705
5733 5730 5728 5728 5726 5725 5724 5724 5723 5722 5722 5721 5720 5720 5720 5719 5718 5717 5716 5715 5715 5714 5712 5712 5709 5708 5705 5705 5704 5704 5704 5704 5703 5703 5701 5701 5700 5699 5698 5697 5698 5698 5698
5730 5728 5725 5723 5722 5721 5720 5719 5718 5717 5717 5717 5716 5716 5715 5715 5714 5713 5712 5711 5711 5709 5707 5706 5704 5704 5702 5701 5701 5699 5699 5699 5698 5697 5696 5695 5694 5694 5693 5692 5692 5692 5692
5726 5724 5721 5719 5718 5717 5714 5712 5711 5709 5711 5711 5711 5711 5711 5711 5710 5709 5708 5707 5706 5704 5703 5702 5700 5698 5697 5697 5694 5690 5692 5694 5693 5691 5691 5690 5689 5688 5688 5688 5687 5686 5686
5721 5719 5718 5716 5715 5713 5711 5711 5710 5708 5707 5707 5707 5707 5706 5706 5706 5705 5704 5702 5701 5699 5698 5697 5696 5693 5693 5694 5689 5684 5680 5680 5684 5686 5685 5684 5683 5683 5683 5683 5682 5681 5680
5717 5716 5715 5714 5713 5711 5709 5708 5706 5704 5703 5701 5700 5701 5702 5702 5701 5701 5700 5699 5698 5696 5694 5693 5692 5689 5686 5688 5689 5683 5676 5670 5672 5676 5678 5679 5678 5678 5678 5678 5677 5676 5675
5715 5715 5713 5712 5710 5709 5707 5704 5700 5696 5694 5696 5697 5697 5698 5698 5698 5697 5696 5695 5694 5693 5691 5690 5689 5687 5684 5681 5683 5684 5681 5677 5669 5665 5669 5672 5673 5673 5672 5672 5672 5671 5671
5713 5711 5710 5708 5707 5705 5703 5701 5697 5695 5694 5694 5695 5694 5693 5693 5693 5693 5692 5691 5690 5689 5688 5687 5685 5684 5681 5679 5677 5677 5675 5674 5672 5663 5658 5661 5664 5666 5667 5667 5666 5666 5666
5709 5707 5706 5703 5701 5700 5699 5697 5695 5692 5691 5690 5689 5688 5688 5688 5688 5688 5688 5687 5686 5685 5684 5683 5682 5680 5678 5676 5674 5672 5669 5666 5664 5661 5656 5655 5655 5658 5661 5661 5661 5661 5660